,,PA_Meas_PMT16A,,PR_Meas_QMR101_102,,RH_Meas_QMH101,,SR_Meas_QMS101,,TA_Meas_QMH101,,GenWind,,GenWind,
time,status,PA,status,PR,status,RH,status,SR,status,TA,status,DirAvg,status,SpdAvg,
2012-04-08, 00:00:04,VALID,917.841,VALID,0,VALID,97.8694,VALID,0.107441,VALID,19.4074,VALID,53,VALID,0.758984,
2012-04-08, 00:01:04,VALID,917.835,VALID,0,VALID,97.9075,VALID,0.107441,VALID,19.3879,VALID,77,VALID,0.823438,
2012-04-08, 00:02:04,VALID,917.832,VALID,0,VALID,97.877,VALID,0.107441,VALID,19.3879,VALID,124,VALID,1.01367,
2012-04-08, 00:03:04,VALID,917.885,VALID,0,VALID,97.877,VALID,0,VALID,19.3879,VALID,124,VALID,0.905469,
2012-04-08, 00:04:04,VALID,917.848,VALID,0,VALID,97.8847,VALID,0.107441,VALID,19.3879,VALID,124,VALID,0.860937,
2012-04-08, 00:05:04,VALID,917.819,VALID,0,VALID,97.8999,VALID,0,VALID,19.3879,VALID,124,VALID,1.12656,
2012-04-08, 00:06:04,VALID,917.867,VALID,0,VALID,97.8923,VALID,0,VALID,19.4088,VALID,172,VALID,1.0207,
2012-04-08, 00:07:04,VALID,917.844,VALID,0,VALID,97.9152,VALID,0,VALID,19.4088,VALID,172,VALID,0.746094,
2012-04-08, 00:08:04,VALID,917.831,VALID,0,VALID,97.8847,VALID,0,VALID,19.4059,VALID,172,VALID,0.808203,
2012-04-08, 00:09:04,VALID,917.815,VALID,0,VALID,97.8847,VALID,0,VALID,19.4283,VALID,172,VALID,0.714844,
2012-04-08, 00:10:04,VALID,917.789,VALID,0,VALID,97.8923,VALID,0,VALID,19.4493,VALID,172,VALID,0.761719,
2012-04-08, 00:11:04,VALID,917.798,VALID,0,VALID,97.8923,VALID,0,VALID,19.4688,VALID,156,VALID,0.774219,
2012-04-08, 00:12:04,VALID,917.794,VALID,0,VALID,97.8999,VALID,0,VALID,19.4478,VALID,150,VALID,0.662109,
2012-04-08, 00:13:04,VALID,917.765,VALID,0,VALID,97.8923,VALID,0,VALID,19.4493,VALID,135,VALID,1.00937,
2012-04-08, 00:14:04,VALID,917.751,VALID,0,VALID,97.8999,VALID,0,VALID,19.4508,VALID,117,VALID,1.02422,
2012-04-08, 00:15:04,VALID,917.741,VALID,0,VALID,97.8999,VALID,0,VALID,19.4493,VALID,118,VALID,0.883984,
2012-04-08, 00:16:04,VALID,917.746,VALID,0,VALID,97.8923,VALID,0,VALID,19.4478,VALID,117,VALID,0.872266,
2012-04-08, 00:17:04,VALID,917.721,VALID,0,VALID,97.877,VALID,0,VALID,19.4493,VALID,117,VALID,1.36367,
2012-04-08, 00:18:04,VALID,917.71,VALID,0,VALID,97.8923,VALID,0,VALID,19.4478,VALID,85,VALID,1.38906,
2012-04-08, 00:19:04,VALID,917.698,VALID,0,VALID,97.8923,VALID,0,VALID,19.4478,VALID,98,VALID,0.720703,
2012-04-08, 00:20:04,VALID,917.682,VALID,0,VALID,97.9152,VALID,0,VALID,19.4493,VALID,98,VALID,0.545313,
2012-04-08, 00:21:04,VALID,917.659,VALID,0,VALID,97.8847,VALID,0,VALID,19.4883,VALID,115,VALID,0.828516,
2012-04-08, 00:22:04,VALID,917.634,VALID,0,VALID,97.9075,VALID,0,VALID,19.4688,VALID,115,VALID,0.912891,
2012-04-08, 00:23:04,VALID,917.605,VALID,0,VALID,97.8923,VALID,0,VALID,19.4883,VALID,115,VALID,0.321484,
2012-04-08, 00:24:04,VALID,917.547,VALID,0,VALID,97.8999,VALID,0,VALID,19.5063,VALID,115,VALID,0.291406,
2012-04-08, 00:25:04,VALID,917.539,VALID,0,VALID,97.9152,VALID,0.107441,VALID,19.4853,VALID,115,VALID,0.400781,
2012-04-08, 00:26:04,VALID,917.457,VALID,0,VALID,97.877,VALID,0.107441,VALID,19.4853,VALID,115,VALID,0.236328,
2012-04-08, 00:27:04,VALID,917.457,VALID,0,VALID,97.8694,VALID,0.107441,VALID,19.4853,VALID,115,VALID,0.376953,
2012-04-08, 00:28:04,VALID,917.43,VALID,0,VALID,97.8694,VALID,0.107441,VALID,19.5063,VALID,115,VALID,0.469531,
2012-04-08, 00:29:04,VALID,917.427,VALID,0,VALID,97.9152,VALID,0.107441,VALID,19.4268,VALID,115,VALID,0.960156,
2012-04-08, 00:30:04,VALID,917.41,VALID,0,VALID,97.9152,VALID,0.107441,VALID,19.4268,VALID,113,VALID,1.06367,
2012-04-08, 00:31:04,VALID,917.43,VALID,0,VALID,97.9075,VALID,0.107441,VALID,19.4478,VALID,104,VALID,1.02148,
2012-04-08, 00:32:04,VALID,917.418,VALID,0,VALID,97.9152,VALID,0.107441,VALID,19.4074,VALID,108,VALID,0.963281,
2012-04-08, 00:33:04,VALID,917.362,VALID,0,VALID,97.8923,VALID,0,VALID,19.3879,VALID,120,VALID,1.62539,
2012-04-08, 00:34:04,VALID,917.363,VALID,0,VALID,97.877,VALID,0.107441,VALID,19.4088,VALID,106,VALID,1.15859,
2012-04-08, 00:35:04,VALID,917.359,VALID,0,VALID,97.8923,VALID,0,VALID,19.3893,VALID,108,VALID,1.08555,
2012-04-08, 00:36:04,VALID,917.301,VALID,0,VALID,97.8999,VALID,0.107441,VALID,19.3684,VALID,121,VALID,1.09648,
2012-04-08, 00:37:04,VALID,917.289,VALID,0,VALID,97.9075,VALID,0,VALID,19.4088,VALID,118,VALID,1.36797,
2012-04-08, 00:38:04,VALID,917.26,VALID,0,VALID,97.8999,VALID,0,VALID,19.3684,VALID,117,VALID,1.01133,
2012-04-08, 00:39:04,VALID,917.214,VALID,0,VALID,97.9152,VALID,0,VALID,19.3908,VALID,117,VALID,1.19961,
2012-04-08, 00:40:04,VALID,917.177,VALID,0,VALID,97.9152,VALID,0,VALID,19.3908,VALID,117,VALID,0.569922,
2012-04-08, 00:41:04,VALID,917.156,VALID,0,VALID,97.9152,VALID,0,VALID,19.3713,VALID,117,VALID,0.453516,
2012-04-08, 00:42:04,VALID,917.095,VALID,0,VALID,97.9304,VALID,0,VALID,19.3893,VALID,117,VALID,0.576953,
2012-04-08, 00:43:04,VALID,917.07,VALID,0,VALID,97.9228,VALID,0,VALID,19.3893,VALID,117,VALID,0.606641,
2012-04-08, 00:44:04,VALID,917.038,VALID,0,VALID,97.8923,VALID,0,VALID,19.4298,VALID,117,VALID,0.728516,
2012-04-08, 00:45:04,VALID,916.987,VALID,0,VALID,97.9075,VALID,0,VALID,19.4103,VALID,117,VALID,0.769141,
2012-04-08, 00:46:04,VALID,917.006,VALID,0,VALID,97.8999,VALID,0,VALID,19.4103,VALID,117,VALID,0.818359,
2012-04-08, 00:47:04,VALID,916.966,VALID,0,VALID,97.9152,VALID,0,VALID,19.4118,VALID,117,VALID,0.571484,
2012-04-08, 00:48:04,VALID,916.914,VALID,0,VALID,97.9304,VALID,0,VALID,19.4103,VALID,117,VALID,0.864062,
2012-04-08, 00:49:04,VALID,916.915,VALID,0,VALID,97.8923,VALID,0,VALID,19.4103,VALID,117,VALID,0.937109,
2012-04-08, 00:50:04,VALID,916.883,VALID,0,VALID,97.9075,VALID,0,VALID,19.4103,VALID,117,VALID,0.657422,
2012-04-08, 00:51:04,VALID,916.867,VALID,0,VALID,97.9075,VALID,0,VALID,19.3908,VALID,117,VALID,0.569141,
2012-04-08, 00:52:04,VALID,916.846,VALID,0,VALID,97.8999,VALID,0,VALID,19.4103,VALID,117,VALID,1.05742,
2012-04-08, 00:53:04,VALID,916.852,VALID,0,VALID,97.9075,VALID,0,VALID,19.4103,VALID,117,VALID,0.514063,
2012-04-08, 00:54:04,VALID,916.822,VALID,0,VALID,97.8999,VALID,0,VALID,19.3684,VALID,117,VALID,0.819141,
2012-04-08, 00:55:04,VALID,916.834,VALID,0,VALID,97.8923,VALID,0,VALID,19.3893,VALID,117,VALID,0.724219,
2012-04-08, 00:56:04,VALID,916.798,VALID,0,VALID,97.9304,VALID,0,VALID,19.3503,VALID,117,VALID,0.715234,
2012-04-08, 00:57:04,VALID,916.782,VALID,0,VALID,97.9075,VALID,0,VALID,19.3698,VALID,117,VALID,0.874609,
2012-04-08, 00:58:04,VALID,916.752,VALID,0,VALID,97.8847,VALID,0,VALID,19.3489,VALID,117,VALID,0.857422,
2012-04-08, 00:59:04,VALID,916.739,VALID,0,VALID,97.9304,VALID,0,VALID,19.3294,VALID,117,VALID,0.524219,
2012-04-08, 01:00:04,VALID,916.724,VALID,0,VALID,97.9075,VALID,0,VALID,19.3489,VALID,117,VALID,0.753906,
2012-04-08, 01:01:04,VALID,916.706,VALID,0,VALID,97.9152,VALID,0,VALID,19.3503,VALID,117,VALID,1.05391,
2012-04-08, 01:02:04,VALID,916.707,VALID,0,VALID,97.9152,VALID,0.107441,VALID,19.3294,VALID,117,VALID,0.847656,
2012-04-08, 01:03:04,VALID,916.667,VALID,0,VALID,97.9304,VALID,0,VALID,19.3308,VALID,117,VALID,1.25664,
2012-04-08, 01:04:04,VALID,916.655,VALID,0,VALID,97.9075,VALID,0.107441,VALID,19.3294,VALID,117,VALID,1.33047,
2012-04-08, 01:05:04,VALID,916.644,VALID,0,VALID,97.9075,VALID,0,VALID,19.3099,VALID,133,VALID,1.53555,
2012-04-08, 01:06:04,VALID,916.655,VALID,0,VALID,97.9075,VALID,0,VALID,19.3308,VALID,131,VALID,1.41758,
2012-04-08, 01:07:04,VALID,916.625,VALID,0,VALID,97.9228,VALID,0,VALID,19.3113,VALID,134,VALID,1.53398,
2012-04-08, 01:08:04,VALID,916.638,VALID,0,VALID,97.9075,VALID,0,VALID,19.3113,VALID,142,VALID,1.35938,
2012-04-08, 01:09:04,VALID,916.628,VALID,0,VALID,97.938,VALID,0,VALID,19.2918,VALID,138,VALID,1.20625,
2012-04-08, 01:10:04,VALID,916.592,VALID,0,VALID,97.9152,VALID,0,VALID,19.3113,VALID,138,VALID,1.02617,
2012-04-08, 01:11:04,VALID,916.559,VALID,0,VALID,97.9075,VALID,0,VALID,19.3113,VALID,138,VALID,0.593359,
2012-04-08, 01:12:04,VALID,916.578,VALID,0,VALID,97.9152,VALID,0,VALID,19.3323,VALID,144,VALID,0.9125,
2012-04-08, 01:13:04,VALID,916.579,VALID,0,VALID,97.9304,VALID,0,VALID,19.2918,VALID,144,VALID,0.677734,
2012-04-08, 01:14:04,VALID,916.611,VALID,0,VALID,97.9152,VALID,0,VALID,19.3113,VALID,149,VALID,1.13281,
2012-04-08, 01:15:04,VALID,916.6,VALID,0,VALID,97.8999,VALID,0,VALID,19.3113,VALID,150,VALID,1.08789,
2012-04-08, 01:16:04,VALID,916.569,VALID,0,VALID,97.9075,VALID,0,VALID,19.3308,VALID,138,VALID,1.53633,
2012-04-08, 01:17:04,VALID,916.535,VALID,0,VALID,97.9228,VALID,0,VALID,19.3308,VALID,145,VALID,1.40234,
2012-04-08, 01:18:04,VALID,916.54,VALID,0,VALID,97.9152,VALID,0.107441,VALID,19.3308,VALID,138,VALID,1.26055,
2012-04-08, 01:19:04,VALID,916.499,VALID,0,VALID,97.9152,VALID,0,VALID,19.3698,VALID,160,VALID,2.03047,
2012-04-08, 01:20:04,VALID,916.479,VALID,0,VALID,97.8999,VALID,0,VALID,19.3698,VALID,155,VALID,0.830469,
2012-04-08, 01:21:04,VALID,916.451,VALID,0,VALID,97.9075,VALID,0,VALID,19.4478,VALID,140,VALID,2.11562,
2012-04-08, 01:22:04,VALID,916.445,VALID,0,VALID,97.9152,VALID,0,VALID,19.4478,VALID,137,VALID,1.62539,
2012-04-08, 01:23:04,VALID,916.426,VALID,0,VALID,97.8999,VALID,0,VALID,19.4673,VALID,142,VALID,0.529688,
2012-04-08, 01:24:04,VALID,916.4,VALID,0,VALID,97.877,VALID,0,VALID,19.4658,VALID,145,VALID,1.54648,
2012-04-08, 01:25:04,VALID,916.391,VALID,0,VALID,97.8999,VALID,0,VALID,19.4868,VALID,167,VALID,1.58242,
2012-04-08, 01:26:04,VALID,916.372,VALID,0,VALID,97.8923,VALID,0,VALID,19.4673,VALID,136,VALID,1.56289,
2012-04-08, 01:27:04,VALID,916.34,VALID,0,VALID,97.8923,VALID,0,VALID,19.4268,VALID,148,VALID,1.16289,
2012-04-08, 01:28:04,VALID,916.308,VALID,0,VALID,97.8923,VALID,0,VALID,19.4868,VALID,140,VALID,1.06289,
2012-04-08, 01:29:04,VALID,916.289,VALID,0,VALID,97.877,VALID,0,VALID,19.4868,VALID,141,VALID,1.4957,
2012-04-08, 01:30:04,VALID,916.275,VALID,0,VALID,97.8847,VALID,0,VALID,19.4673,VALID,141,VALID,1.41875,
2012-04-08, 01:31:04,VALID,916.243,VALID,0,VALID,97.8923,VALID,0,VALID,19.4688,VALID,154,VALID,1.5625,
2012-04-08, 01:32:04,VALID,916.25,VALID,0,VALID,97.8999,VALID,0,VALID,19.4268,VALID,169,VALID,0.916797,
2012-04-08, 01:33:04,VALID,916.211,VALID,0,VALID,97.8923,VALID,0,VALID,19.4283,VALID,189,VALID,1.08398,
2012-04-08, 01:34:04,VALID,916.157,VALID,0,VALID,97.8999,VALID,0,VALID,19.4283,VALID,186,VALID,1.05313,
2012-04-08, 01:35:04,VALID,916.182,VALID,0,VALID,97.8923,VALID,0,VALID,19.4478,VALID,142,VALID,0.904297,
2012-04-08, 01:36:04,VALID,916.161,VALID,0,VALID,97.8999,VALID,0,VALID,19.4283,VALID,156,VALID,1.76914,
2012-04-08, 01:37:04,VALID,916.169,VALID,0,VALID,97.8923,VALID,0,VALID,19.4088,VALID,157,VALID,1.26563,
2012-04-08, 01:38:04,VALID,916.16,VALID,0,VALID,97.8694,VALID,0,VALID,19.4088,VALID,136,VALID,0.866406,
2012-04-08, 01:39:04,VALID,916.167,VALID,0,VALID,97.8999,VALID,0,VALID,19.4088,VALID,179,VALID,0.745703,
2012-04-08, 01:40:04,VALID,916.148,VALID,0,VALID,97.8999,VALID,0,VALID,19.3698,VALID,159,VALID,0.991016,
2012-04-08, 01:41:04,VALID,916.136,VALID,0,VALID,97.8847,VALID,0,VALID,19.3698,VALID,152,VALID,1.43125,
2012-04-08, 01:42:04,VALID,916.114,VALID,0,VALID,97.8847,VALID,0,VALID,19.2874,VALID,160,VALID,1.2168,
2012-04-08, 01:43:04,VALID,916.109,VALID,0,VALID,97.8999,VALID,0,VALID,19.3503,VALID,144,VALID,0.696484,
2012-04-08, 01:44:04,VALID,916.09,VALID,0,VALID,97.877,VALID,0,VALID,19.3698,VALID,162,VALID,1.81719,
2012-04-08, 01:45:04,VALID,916.098,VALID,0,VALID,97.877,VALID,0,VALID,19.3684,VALID,165,VALID,2.11641,
2012-04-08, 01:46:04,VALID,916.086,VALID,0,VALID,97.8999,VALID,0,VALID,19.4283,VALID,166,VALID,1.45195,
2012-04-08, 01:47:04,VALID,916.047,VALID,0,VALID,97.8847,VALID,0,VALID,19.4283,VALID,172,VALID,1.73047,
2012-04-08, 01:48:05,VALID,916.031,VALID,0,VALID,97.8923,VALID,0,VALID,19.4283,VALID,167,VALID,0.915625,
2012-04-08, 01:49:05,VALID,916.005,VALID,0,VALID,97.8694,VALID,0,VALID,19.4283,VALID,158,VALID,2.08594,
2012-04-08, 01:50:05,VALID,916.01,VALID,0,VALID,97.8923,VALID,0,VALID,19.3879,VALID,171,VALID,1.78867,
2012-04-08, 01:51:05,VALID,916.018,VALID,0,VALID,97.8999,VALID,0,VALID,19.4088,VALID,153,VALID,0.957812,
2012-04-08, 01:52:05,VALID,915.987,VALID,0,VALID,97.8618,VALID,0,VALID,19.4088,VALID,157,VALID,0.341016,
2012-04-08, 01:53:05,VALID,915.955,VALID,0,VALID,97.8542,VALID,0.107441,VALID,19.3879,VALID,151,VALID,1.33711,
2012-04-08, 01:54:05,VALID,915.973,VALID,0,VALID,97.8847,VALID,0,VALID,19.3698,VALID,153,VALID,0.515234,
2012-04-08, 01:55:05,VALID,915.965,VALID,0,VALID,97.8694,VALID,0,VALID,19.3698,VALID,127,VALID,0.391797,
2012-04-08, 01:56:05,VALID,915.974,VALID,0,VALID,97.877,VALID,0,VALID,19.3099,VALID,146,VALID,0.322656,
2012-04-08, 01:57:05,VALID,915.98,VALID,0,VALID,97.8847,VALID,0,VALID,19.3308,VALID,147,VALID,0.789844,
2012-04-08, 01:58:05,VALID,915.954,VALID,0,VALID,97.8618,VALID,0,VALID,19.2904,VALID,142,VALID,1.05703,
2012-04-08, 01:59:05,VALID,915.97,VALID,0,VALID,97.8542,VALID,0,VALID,19.3113,VALID,150,VALID,0.252344,
2012-04-08, 02:00:05,VALID,915.948,VALID,0,VALID,97.8618,VALID,0,VALID,19.2709,VALID,156,VALID,0.589063,
2012-04-08, 02:01:05,VALID,915.945,VALID,0,VALID,97.8618,VALID,0,VALID,19.2723,VALID,147,VALID,0.676953,
2012-04-08, 02:02:05,VALID,915.949,VALID,0,VALID,97.8618,VALID,0,VALID,19.2918,VALID,183,VALID,0.675391,
2012-04-08, 02:03:05,VALID,915.9,VALID,0,VALID,97.877,VALID,0,VALID,19.2723,VALID,183,VALID,0.538281,
2012-04-08, 02:04:05,VALID,915.918,VALID,0,VALID,97.877,VALID,0,VALID,19.2514,VALID,175,VALID,0.549609,
2012-04-08, 02:05:05,VALID,915.892,VALID,0,VALID,97.877,VALID,0,VALID,19.2319,VALID,144,VALID,0.872656,
2012-04-08, 02:06:05,VALID,915.894,VALID,0,VALID,97.8542,VALID,0.107441,VALID,19.2528,VALID,148,VALID,1.03477,
2012-04-08, 02:07:05,VALID,915.849,VALID,0,VALID,97.8618,VALID,0,VALID,19.2723,VALID,174,VALID,1.11094,
2012-04-08, 02:08:05,VALID,915.843,VALID,0,VALID,97.8618,VALID,0,VALID,19.2514,VALID,164,VALID,1.36914,
2012-04-08, 02:09:05,VALID,915.799,VALID,0,VALID,97.8694,VALID,0,VALID,19.2918,VALID,161,VALID,1.32305,
2012-04-08, 02:10:05,VALID,915.818,VALID,0,VALID,97.8694,VALID,0,VALID,19.3113,VALID,144,VALID,1.54336,
2012-04-08, 02:11:05,VALID,915.806,VALID,0,VALID,97.8618,VALID,0,VALID,19.3518,VALID,156,VALID,0.979297,
2012-04-08, 02:12:05,VALID,915.802,VALID,0,VALID,97.8694,VALID,0,VALID,19.3489,VALID,120,VALID,0.891797,
2012-04-08, 02:13:05,VALID,915.797,VALID,0,VALID,97.8618,VALID,0,VALID,19.3503,VALID,135,VALID,1.11211,
2012-04-08, 02:14:05,VALID,915.79,VALID,0,VALID,97.8465,VALID,0,VALID,19.3908,VALID,139,VALID,1.90625,
2012-04-08, 02:15:05,VALID,915.78,VALID,0,VALID,97.8542,VALID,0,VALID,19.3893,VALID,137,VALID,0.412891,
2012-04-08, 02:16:05,VALID,915.792,VALID,0,VALID,97.8465,VALID,0,VALID,19.3893,VALID,143,VALID,1.38359,
2012-04-08, 02:17:05,VALID,915.774,VALID,0,VALID,97.8465,VALID,0,VALID,19.4298,VALID,163,VALID,1.22344,
2012-04-08, 02:18:05,VALID,915.788,VALID,0,VALID,97.8389,VALID,0,VALID,19.3893,VALID,159,VALID,1.17773,
2012-04-08, 02:19:05,VALID,915.765,VALID,0,VALID,97.8542,VALID,0,VALID,19.4298,VALID,149,VALID,1.55391,
2012-04-08, 02:20:05,VALID,915.796,VALID,0,VALID,97.8465,VALID,0,VALID,19.4478,VALID,144,VALID,1.52461,
2012-04-08, 02:21:05,VALID,915.788,VALID,0,VALID,97.8542,VALID,0,VALID,19.4493,VALID,160,VALID,0.720703,
2012-04-08, 02:22:05,VALID,915.764,VALID,0,VALID,97.8389,VALID,0,VALID,19.4688,VALID,155,VALID,1.34492,
2012-04-08, 02:23:05,VALID,915.784,VALID,0,VALID,97.8389,VALID,0,VALID,19.4074,VALID,132,VALID,0.691016,
2012-04-08, 02:24:05,VALID,915.798,VALID,0,VALID,97.8237,VALID,0,VALID,19.4088,VALID,143,VALID,1.74453,
2012-04-08, 02:25:05,VALID,915.802,VALID,0,VALID,97.8084,VALID,0,VALID,19.3893,VALID,145,VALID,1.08008,
2012-04-08, 02:26:05,VALID,915.798,VALID,0,VALID,97.8313,VALID,0,VALID,19.4088,VALID,170,VALID,0.607031,
2012-04-08, 02:27:05,VALID,915.805,VALID,0,VALID,97.8008,VALID,0,VALID,19.3893,VALID,165,VALID,0.715625,
2012-04-08, 02:28:05,VALID,915.797,VALID,0,VALID,97.816,VALID,0,VALID,19.3698,VALID,165,VALID,0.585156,
2012-04-08, 02:29:05,VALID,915.816,VALID,0,VALID,97.7932,VALID,0,VALID,19.3713,VALID,165,VALID,0.683984,
2012-04-08, 02:30:05,VALID,915.782,VALID,0,VALID,97.8008,VALID,0,VALID,19.3503,VALID,145,VALID,0.486328,
2012-04-08, 02:31:05,VALID,915.735,VALID,0,VALID,97.8008,VALID,0,VALID,19.3713,VALID,162,VALID,0.798437,
2012-04-08, 02:32:05,VALID,915.728,VALID,0,VALID,97.7779,VALID,0,VALID,19.3503,VALID,162,VALID,0.423047,
2012-04-08, 02:33:05,VALID,915.726,VALID,0,VALID,97.7779,VALID,0,VALID,19.3503,VALID,162,VALID,0.428516,
2012-04-08, 02:34:05,VALID,915.681,VALID,0,VALID,97.8084,VALID,0,VALID,19.3113,VALID,162,VALID,0.437891,
2012-04-08, 02:35:05,VALID,915.655,VALID,0,VALID,97.8008,VALID,0,VALID,19.3113,VALID,162,VALID,0.415234,
2012-04-08, 02:36:05,VALID,915.645,VALID,0,VALID,97.7779,VALID,0,VALID,19.2904,VALID,144,VALID,1.11563,
2012-04-08, 02:37:05,VALID,915.666,VALID,0,VALID,97.7779,VALID,0,VALID,19.2918,VALID,146,VALID,0.378516,
2012-04-08, 02:38:05,VALID,915.607,VALID,0,VALID,97.7779,VALID,0,VALID,19.3128,VALID,118,VALID,0.786328,
2012-04-08, 02:39:05,VALID,915.626,VALID,0,VALID,97.7932,VALID,0,VALID,19.3323,VALID,126,VALID,0.824219,
2012-04-08, 02:40:05,VALID,915.615,VALID,0,VALID,97.7703,VALID,0,VALID,19.3113,VALID,124,VALID,0.75,
2012-04-08, 02:41:05,VALID,915.603,VALID,0,VALID,97.7703,VALID,0,VALID,19.3113,VALID,126,VALID,0.886328,
2012-04-08, 02:42:05,VALID,915.619,VALID,0,VALID,97.7932,VALID,0,VALID,19.3308,VALID,122,VALID,0.496875,
2012-04-08, 02:43:05,VALID,915.644,VALID,0,VALID,97.7932,VALID,0,VALID,19.3113,VALID,122,VALID,0.65625,
2012-04-08, 02:44:05,VALID,915.669,VALID,0,VALID,97.7779,VALID,0,VALID,19.2918,VALID,122,VALID,0.430078,
2012-04-08, 02:45:05,VALID,915.668,VALID,0,VALID,97.7779,VALID,0,VALID,19.2918,VALID,122,VALID,0.654297,
2012-04-08, 02:46:05,VALID,915.693,VALID,0,VALID,97.7474,VALID,0,VALID,19.2334,VALID,122,VALID,0.716797,
2012-04-08, 02:47:05,VALID,915.719,VALID,0,VALID,97.7551,VALID,0,VALID,19.2543,VALID,122,VALID,0.717188,
2012-04-08, 02:48:05,VALID,915.709,VALID,0,VALID,97.7322,VALID,0,VALID,19.2139,VALID,122,VALID,0.677344,
2012-04-08, 02:49:05,VALID,915.737,VALID,0,VALID,97.7398,VALID,0,VALID,19.1749,VALID,122,VALID,0.624609,
2012-04-08, 02:50:05,VALID,915.719,VALID,0,VALID,97.7322,VALID,0,VALID,19.1359,VALID,122,VALID,0.759766,
2012-04-08, 02:51:05,VALID,915.733,VALID,0,VALID,97.7246,VALID,0,VALID,19.1149,VALID,122,VALID,0.733594,
2012-04-08, 02:52:05,VALID,915.737,VALID,0,VALID,97.7322,VALID,0,VALID,19.0954,VALID,123,VALID,0.739062,
2012-04-08, 02:53:05,VALID,915.726,VALID,0,VALID,97.7017,VALID,0,VALID,19.1359,VALID,135,VALID,1.39727,
2012-04-08, 02:54:05,VALID,915.733,VALID,0,VALID,97.7246,VALID,0,VALID,19.1359,VALID,146,VALID,1.33203,
2012-04-08, 02:55:05,VALID,915.745,VALID,0,VALID,97.7093,VALID,0,VALID,19.1359,VALID,144,VALID,0.931641,
2012-04-08, 02:56:05,VALID,915.735,VALID,0,VALID,97.7093,VALID,0,VALID,19.1583,VALID,155,VALID,0.903125,
2012-04-08, 02:57:05,VALID,915.713,VALID,0,VALID,97.7169,VALID,0,VALID,19.0954,VALID,156,VALID,1.04766,
2012-04-08, 02:58:05,VALID,915.72,VALID,0,VALID,97.6865,VALID,0,VALID,19.1554,VALID,156,VALID,1.02109,
2012-04-08, 02:59:05,VALID,915.704,VALID,0,VALID,97.6865,VALID,0,VALID,19.1359,VALID,148,VALID,0.889063,
2012-04-08, 03:00:05,VALID,915.731,VALID,0,VALID,97.6712,VALID,0,VALID,19.1373,VALID,153,VALID,0.5625,
2012-04-08, 03:01:05,VALID,915.703,VALID,0,VALID,97.6941,VALID,0,VALID,19.1164,VALID,153,VALID,0.166406,
2012-04-08, 03:02:05,VALID,915.713,VALID,0,VALID,97.7093,VALID,0,VALID,19.0969,VALID,153,VALID,0.823828,
2012-04-08, 03:03:05,VALID,915.729,VALID,0,VALID,97.7093,VALID,0,VALID,19.0774,VALID,153,VALID,0.386328,
2012-04-08, 03:04:05,VALID,915.758,VALID,0,VALID,97.7169,VALID,0,VALID,19.0369,VALID,153,VALID,0,
2012-04-08, 03:05:05,VALID,915.76,VALID,0,VALID,97.7017,VALID,0,VALID,19.0579,VALID,153,VALID,0.630078,
2012-04-08, 03:06:05,VALID,915.765,VALID,0,VALID,97.7017,VALID,0,VALID,19.0384,VALID,160,VALID,0.924609,
2012-04-08, 03:07:05,VALID,915.724,VALID,0,VALID,97.7246,VALID,0,VALID,19.0998,VALID,159,VALID,0.4125,
2012-04-08, 03:08:05,VALID,915.764,VALID,0,VALID,97.7246,VALID,0,VALID,19.0608,VALID,160,VALID,0.0933594,
2012-04-08, 03:09:05,VALID,915.76,VALID,0,VALID,97.7246,VALID,0,VALID,19.0189,VALID,160,VALID,0.545703,
2012-04-08, 03:10:05,VALID,915.747,VALID,0,VALID,97.7246,VALID,0.107441,VALID,18.9799,VALID,160,VALID,0.617969,
2012-04-08, 03:11:05,VALID,915.767,VALID,0,VALID,97.7398,VALID,0,VALID,18.9604,VALID,160,VALID,0.495313,
2012-04-08, 03:12:05,VALID,915.767,VALID,0,VALID,97.7474,VALID,0,VALID,18.9604,VALID,160,VALID,0.508203,
2012-04-08, 03:13:05,VALID,915.754,VALID,0,VALID,97.7169,VALID,0,VALID,18.9604,VALID,160,VALID,0.533594,
2012-04-08, 03:14:05,VALID,915.783,VALID,0,VALID,97.7474,VALID,0,VALID,18.9214,VALID,159,VALID,0.317969,
2012-04-08, 03:15:05,VALID,915.754,VALID,0,VALID,97.7474,VALID,0,VALID,18.9214,VALID,160,VALID,0.80625,
2012-04-08, 03:16:05,VALID,915.757,VALID,0,VALID,97.7474,VALID,0,VALID,18.9409,VALID,160,VALID,0.469141,
2012-04-08, 03:17:05,VALID,915.799,VALID,0,VALID,97.7474,VALID,0,VALID,18.9409,VALID,160,VALID,0.307031,
2012-04-08, 03:18:05,VALID,915.755,VALID,0,VALID,97.7627,VALID,0,VALID,18.8824,VALID,160,VALID,0.948438,
2012-04-08, 03:19:05,VALID,915.763,VALID,0,VALID,97.7169,VALID,0,VALID,18.8629,VALID,160,VALID,0.614062,
2012-04-08, 03:20:05,VALID,915.737,VALID,0,VALID,97.7551,VALID,0,VALID,18.8824,VALID,160,VALID,0.85625,
2012-04-08, 03:21:05,VALID,915.737,VALID,0,VALID,97.7322,VALID,0,VALID,18.9019,VALID,157,VALID,0.503906,
2012-04-08, 03:22:05,VALID,915.733,VALID,0,VALID,97.7322,VALID,0,VALID,18.8824,VALID,157,VALID,0.426172,
2012-04-08, 03:23:05,VALID,915.755,VALID,0,VALID,97.7474,VALID,0,VALID,18.9019,VALID,157,VALID,0.775391,
2012-04-08, 03:24:05,VALID,915.772,VALID,0,VALID,97.7398,VALID,0,VALID,18.8824,VALID,157,VALID,0.722656,
2012-04-08, 03:25:05,VALID,915.793,VALID,0,VALID,97.7398,VALID,0.107441,VALID,18.8629,VALID,138,VALID,1.02109,
2012-04-08, 03:26:05,VALID,915.774,VALID,0,VALID,97.7322,VALID,0,VALID,18.8629,VALID,130,VALID,0.748438,
2012-04-08, 03:27:05,VALID,915.802,VALID,0,VALID,97.7169,VALID,0,VALID,18.8644,VALID,130,VALID,0.923828,
2012-04-08, 03:28:05,VALID,915.833,VALID,0,VALID,97.6865,VALID,0,VALID,18.8629,VALID,130,VALID,0.707812,
2012-04-08, 03:29:05,VALID,915.814,VALID,0,VALID,97.7322,VALID,0,VALID,18.8644,VALID,144,VALID,0.473437,
2012-04-08, 03:30:05,VALID,915.852,VALID,0,VALID,97.7017,VALID,0,VALID,18.8629,VALID,144,VALID,0.280078,
2012-04-08, 03:31:05,VALID,915.854,VALID,0,VALID,97.7246,VALID,0,VALID,18.8045,VALID,144,VALID,0.380469,
2012-04-08, 03:32:05,VALID,915.814,VALID,0,VALID,97.7169,VALID,0,VALID,18.8254,VALID,127,VALID,0.679297,
2012-04-08, 03:33:05,VALID,915.826,VALID,0,VALID,97.6941,VALID,0,VALID,18.824,VALID,124,VALID,0.852344,
2012-04-08, 03:34:05,VALID,915.839,VALID,0,VALID,97.6865,VALID,0,VALID,18.8045,VALID,124,VALID,0.603906,
2012-04-08, 03:35:05,VALID,915.828,VALID,0,VALID,97.6712,VALID,0,VALID,18.785,VALID,124,VALID,0.776953,
2012-04-08, 03:36:05,VALID,915.812,VALID,0,VALID,97.6865,VALID,0,VALID,18.785,VALID,124,VALID,0.956641,
2012-04-08, 03:37:05,VALID,915.833,VALID,0,VALID,97.6788,VALID,0,VALID,18.8045,VALID,124,VALID,1.07539,
2012-04-08, 03:38:05,VALID,915.792,VALID,0,VALID,97.6941,VALID,0,VALID,18.8045,VALID,124,VALID,0.838281,
2012-04-08, 03:39:05,VALID,915.802,VALID,0,VALID,97.6712,VALID,0,VALID,18.785,VALID,124,VALID,0.412109,
2012-04-08, 03:40:05,VALID,915.795,VALID,0,VALID,97.6788,VALID,0,VALID,18.7655,VALID,124,VALID,0.623438,
2012-04-08, 03:41:05,VALID,915.794,VALID,0,VALID,97.6788,VALID,0,VALID,18.7669,VALID,124,VALID,0.751172,
2012-04-08, 03:42:05,VALID,915.782,VALID,0,VALID,97.6788,VALID,0,VALID,18.7265,VALID,124,VALID,0.514063,
2012-04-08, 03:43:05,VALID,915.755,VALID,0,VALID,97.6712,VALID,0,VALID,18.6861,VALID,124,VALID,0.533203,